When you browse on this site, cookies collect data to enhance your experience and personalize the content and advertising you see.
Visit our Privacy Policy to learn more. By continuing to use the site, you agree to this use of cookies and data.
  • In Germany
  • List of Countries
  • For 7 days
  • Water Temperature
  • Weather Map
  • Weather Widgets
  • user-avatar
    Login

    Hourly Weather Lezhe

    Today, 18 October, Friday

    Time Temperature Precipitation Wind Pressure Humidity
    00:00 +18°C° 0 mm 1 mps 739 mmHg 74%
    01:00 +18°C° 0 mm 1 mps 739 mmHg 76%
    02:00 +16°C° 0 mm 1 mps 739 mmHg 77%
    03:00 +16°C° 0 mm 1 mps 739 mmHg 77%
    04:00 +16°C° 0 mm 1 mps 739 mmHg 78%
    05:00 +16°C° 0 mm 1 mps 739 mmHg 76%
    06:00 +18°C° 0 mm 1 mps 739 mmHg 74%
    07:00 +18°C° 0 mm 1 mps 739 mmHg 73%
    08:00 +20°C° 0 mm 1 mps 739 mmHg 66%
    09:00 +22°C° 0 mm 1 mps 739 mmHg 59%
    10:00 +24°C° 0 mm 1 mps 739 mmHg 52%
    11:00 +25°C° 0 mm 1 mps 739 mmHg 51%
    12:00 +25°C° 0 mm 2 mps 739 mmHg 50%
    13:00 +26°C° 0 mm 2 mps 738 mmHg 48%
    14:00 +25°C° 0 mm 2 mps 738 mmHg 54%
    15:00 +24°C° 0 mm 2 mps 738 mmHg 59%
    16:00 +23°C° 0 mm 2 mps 738 mmHg 64%
    17:00 +21°C° 0 mm 1 mps 738 mmHg 70%
    18:00 +20°C° 0 mm 1 mps 738 mmHg 77%
    19:00 +16°C° 0 mm 0 mps 738 mmHg 84%
    20:00 +16°C° 0 mm 0 mps 738 mmHg 84%
    21:00 +16°C° 0 mm 0 mps 739 mmHg 84%
    22:00 +18°C° 0 mm 1 mps 739 mmHg 84%
    23:00 +18°C° 0 mm 1 mps 739 mmHg 84%

    Tomorrow, 19 October, Saturday

    Time Temperature Precipitation Wind Pressure Humidity
    00:00 +16°C° 0 mm 1 mps 739 mmHg 83%
    01:00 +16°C° 0 mm 1 mps 739 mmHg 83%
    02:00 +16°C° 0 mm 1 mps 739 mmHg 83%
    03:00 +16°C° 0 mm 1 mps 739 mmHg 82%
    04:00 +16°C° 0 mm 1 mps 739 mmHg 82%
    05:00 +16°C° 0 mm 1 mps 739 mmHg 80%
    06:00 +16°C° 0 mm 1 mps 739 mmHg 78%
    07:00 +18°C° 0 mm 1 mps 739 mmHg 76%
    08:00 +20°C° 0 mm 1 mps 739 mmHg 69%
    09:00 +22°C° 0 mm 1 mps 739 mmHg 61%
    10:00 +24°C° 0 mm 1 mps 739 mmHg 54%
    11:00 +24°C° 0 mm 1 mps 739 mmHg 53%
    12:00 +25°C° 0 mm 2 mps 739 mmHg 52%
    13:00 +25°C° 0 mm 2 mps 739 mmHg 51%
    14:00 +24°C° 0 mm 2 mps 739 mmHg 56%
    15:00 +23°C° 0 mm 2 mps 738 mmHg 61%
    16:00 +22°C° 0 mm 1 mps 738 mmHg 65%
    17:00 +21°C° 0 mm 1 mps 739 mmHg 72%
    18:00 +19°C° 0 mm 1 mps 739 mmHg 79%
    19:00 +16°C° 0 mm 0 mps 739 mmHg 85%
    20:00 +16°C° 0 mm 0 mps 739 mmHg 85%
    21:00 +18°C° 0 mm 1 mps 740 mmHg 84%
    22:00 +16°C° 0 mm 1 mps 740 mmHg 84%
    23:00 +16°C° 0 mm 1 mps 740 mmHg 84%

    Day after tomorrow, 20 October, Sunday

    Time Temperature Precipitation Wind Pressure Humidity
    00:00 +16°C° 0 mm 1 mps 740 mmHg 83%
    01:00 +16°C° 0 mm 1 mps 740 mmHg 83%
    02:00 +15°C° 0 mm 1 mps 740 mmHg 82%
    03:00 +15°C° 0 mm 1 mps 740 mmHg 81%
    04:00 +15°C° 0 mm 1 mps 740 mmHg 80%
    05:00 +16°C° 0 mm 1 mps 740 mmHg 77%
    06:00 +16°C° 0 mm 1 mps 740 mmHg 75%
    07:00 +18°C° 0 mm 1 mps 740 mmHg 72%
    08:00 +20°C° 0 mm 1 mps 741 mmHg 64%
    09:00 +22°C° 0 mm 1 mps 741 mmHg 56%
    10:00 +24°C° 0 mm 1 mps 741 mmHg 48%
    11:00 +25°C° 0 mm 1 mps 741 mmHg 46%
    12:00 +25°C° 0 mm 1 mps 740 mmHg 44%
    13:00 +26°C° 0 mm 2 mps 740 mmHg 43%
    14:00 +25°C° 0 mm 2 mps 740 mmHg 47%
    15:00 +24°C° 0 mm 1 mps 740 mmHg 52%
    16:00 +23°C° 0 mm 1 mps 740 mmHg 57%
    17:00 +21°C° 0 mm 1 mps 740 mmHg 62%
    18:00 +20°C° 0 mm 1 mps 741 mmHg 67%
    19:00 +16°C° 0 mm 0 mps 741 mmHg 72%
    20:00 +18°C° 0 mm 1 mps 741 mmHg 71%
    21:00 +18°C° 0 mm 1 mps 741 mmHg 70%
    22:00 +18°C° 0 mm 1 mps 741 mmHg 69%
    23:00 +16°C° 0 mm 1 mps 741 mmHg 69%

    21 October, Monday

    Time Temperature Precipitation Wind Pressure Humidity
    00:00 +16°C° 0 mm 1 mps 741 mmHg 69%
    01:00 +16°C° 0 mm 1 mps 741 mmHg 68%
    02:00 +16°C° 0 mm 1 mps 741 mmHg 67%
    03:00 +16°C° 0 mm 1 mps 741 mmHg 66%
    04:00 +15°C° 0 mm 1 mps 741 mmHg 64%
    05:00 +16°C° 0 mm 1 mps 741 mmHg 62%
    06:00 +16°C° 0 mm 1 mps 741 mmHg 59%
    07:00 +18°C° 0 mm 1 mps 741 mmHg 56%
    08:00 +20°C° 0 mm 1 mps 741 mmHg 48%
    09:00 +23°C° 0 mm 1 mps 741 mmHg 41%
    10:00 +25°C° 0 mm 1 mps 741 mmHg 33%
    11:00 +26°C° 0 mm 1 mps 741 mmHg 31%
    12:00 +27°C° 0 mm 1 mps 741 mmHg 29%
    13:00 +27°C° 0 mm 1 mps 741 mmHg 28%
    14:00 +26°C° 0 mm 1 mps 741 mmHg 33%
    15:00 +25°C° 0 mm 1 mps 740 mmHg 38%
    16:00 +24°C° 0 mm 1 mps 740 mmHg 44%
    17:00 +22°C° 0 mm 1 mps 740 mmHg 46%
    18:00 +21°C° 0 mm 1 mps 740 mmHg 47%
    19:00 +20°C° 0 mm 1 mps 741 mmHg 49%
    20:00 +19°C° 0 mm 1 mps 741 mmHg 48%
    21:00 +19°C° 0 mm 1 mps 741 mmHg 47%
    22:00 +19°C° 0 mm 1 mps 741 mmHg 46%
    23:00 +19°C° 0 mm 1 mps 741 mmHg 47%

    22 October, Tuesday

    Time Temperature Precipitation Wind Pressure Humidity
    00:00 +19°C° 0 mm 1 mps 741 mmHg 48%
    01:00 +18°C° 0 mm 1 mps 741 mmHg 49%
    02:00 +18°C° 0 mm 1 mps 741 mmHg 49%
    03:00 +17°C° 0 mm 2 mps 741 mmHg 49%
    04:00 +17°C° 0 mm 2 mps 741 mmHg 49%
    05:00 +17°C° 0 mm 2 mps 741 mmHg 49%
    06:00 +17°C° 0 mm 2 mps 741 mmHg 49%
    07:00 +18°C° 0 mm 2 mps 741 mmHg 49%
    08:00 +20°C° 0 mm 2 mps 741 mmHg 44%
    09:00 +24°C° 0 mm 2 mps 741 mmHg 39%
    10:00 +27°C° 0 mm 1 mps 741 mmHg 33%
    11:00 +27°C° 0 mm 2 mps 741 mmHg 32%
    12:00 +28°C° 0 mm 2 mps 741 mmHg 30%
    13:00 +29°C° 0 mm 2 mps 741 mmHg 28%
    14:00 +28°C° 0 mm 2 mps 740 mmHg 33%
    15:00 +26°C° 0 mm 2 mps 740 mmHg 38%
    16:00 +25°C° 0 mm 2 mps 740 mmHg 43%
    17:00 +24°C° 0 mm 2 mps 740 mmHg 44%
    18:00 +21°C° 0 mm 2 mps 740 mmHg 45%
    19:00 +20°C° 0 mm 2 mps 740 mmHg 46%
    20:00 +20°C° 0 mm 2 mps 741 mmHg 47%
    21:00 +19°C° 0 mm 2 mps 741 mmHg 47%
    22:00 +19°C° 0 mm 2 mps 741 mmHg 48%
    23:00 +19°C° 0 mm 2 mps 741 mmHg 48%

    23 October, Wednesday

    Time Temperature Precipitation Wind Pressure Humidity
    00:00 +18°C° 0 mm 2 mps 741 mmHg 49%
    01:00 +18°C° 0 mm 2 mps 741 mmHg 50%
    02:00 +18°C° 0 mm 2 mps 741 mmHg 51%
    03:00 +17°C° 0 mm 2 mps 740 mmHg 51%
    04:00 +17°C° 0 mm 2 mps 740 mmHg 52%
    05:00 +17°C° 0 mm 2 mps 740 mmHg 52%
    06:00 +17°C° 0 mm 2 mps 740 mmHg 53%
    07:00 +18°C° 0 mm 2 mps 740 mmHg 53%
    08:00 +20°C° 0 mm 2 mps 740 mmHg 48%
    09:00 +24°C° 0 mm 2 mps 740 mmHg 42%
    10:00 +26°C° 0 mm 1 mps 740 mmHg 37%
    11:00 +27°C° 0 mm 1 mps 740 mmHg 35%
    12:00 +28°C° 0 mm 1 mps 740 mmHg 32%
    13:00 +29°C° 0 mm 1 mps 740 mmHg 30%
    14:00 +28°C° 0 mm 1 mps 740 mmHg 36%
    15:00 +26°C° 0 mm 1 mps 739 mmHg 41%
    16:00 +25°C° 0 mm 1 mps 739 mmHg 47%
    17:00 +23°C° 0 mm 1 mps 739 mmHg 49%
    18:00 +22°C° 0 mm 1 mps 739 mmHg 52%
    19:00 +21°C° 0 mm 1 mps 740 mmHg 55%
    20:00 +20°C° 0 mm 1 mps 740 mmHg 54%
    21:00 +20°C° 0 mm 1 mps 740 mmHg 54%
    22:00 +20°C° 0 mm 1 mps 740 mmHg 54%
    23:00 +19°C° 0 mm 1 mps 740 mmHg 53%
    Show more